Regional Weather Roundup
Issued by NWS

Home | Current Version | Previous Version | Text Only | Print | Product List | Glossary Off
Versions: 1 2 3 4 5 6 7 8 9 10 11 12 13 14 15 16 17 18 19 20 21 22 23 24 25 26 27 28 29 30 31 32 33 34 35 36 37 38 39 40 41 42 43 44 45 46 47 48 49 50

473
ASUS43 KMKX 271711
RWRWI

WISCONSIN REGIONAL WEATHER ROUNDUP
NATIONAL WEATHER SERVICE MILWAUKEE/SULLIVAN WI
1200 PM CDT MON MAR 27 2017

NOTE: "FAIR" INDICATES FEW OR NO CLOUDS BELOW 12,000 FEET WITH NO
SIGNIFICANT WEATHER AND/OR OBSTRUCTIONS TO VISIBILITY.

WIZ001-002-006>008-014>016-023>028-271800-
NORTHWEST WISCONSIN

CITY           SKY/WX    TMP DP  RH WIND       PRES   REMARKS
SUPERIOR ARPT  CLOUDY    42  37  82 CALM      29.99S
ASHLAND        CLOUDY    43  36  76 VRB3      29.98F
HAYWARD        CLOUDY    49  34  56 VRB3      29.96S
SIREN          SUNNY     48  35  59 N5        29.97F
CUMBERLAND     CLOUDY    43  36  75 CALM      29.96S
RICE LAKE      CLOUDY    41  37  84 CALM      29.98S
CHETEK         CLOUDY    42  37  85 NW3       29.96S
LADYSMITH      CLOUDY    41  37  86 N3        29.97F
EAU CLAIRE     CLOUDY    40  34  79 N6        29.96S
MENOMONIE      CLOUDY    42  36  79 N3        29.98S
NEW RICHMOND   CLOUDY    46  36  69 N6        29.97S
OSCEOLA        MOSUNNY   48  37  66 NW5       30.00S
$$

WIZ003>005-009-010-017-018-271800-
NORTH CENTRAL WISCONSIN

CITY           SKY/WX    TMP DP  RH WIND       PRES   REMARKS
MANITOWISH WTR CLOUDY    38  36  94 N3        29.94S
ARBOR VITAE    CLOUDY    39  36  87 N5        29.94R
WOODRUFF       CLOUDY    39  36  87 N5        29.94R
RHINELANDER    CLOUDY    40  37  89 NE6       29.94R
EAGLE RIVER    CLOUDY    38  35  87 N5        29.93S WCI  34
LAND O LAKES   CLOUDY    36  33  89 NE3       29.96R
PHILLIPS       CLOUDY    39  35  86 N5        29.94S
TOMAHAWK       CLOUDY    38  35  89 CALM      29.94S
MEDFORD        CLOUDY    37  34  89 CALM      29.94R
MERRILL        CLOUDY    38  36  93 CALM      29.95R
$$

WIZ029-030-035-036-043>047-271800-
CENTRAL WISCONSIN

CITY           SKY/WX    TMP DP  RH WIND       PRES   REMARKS
WAUSAU         CLOUDY    39  35  86 W3        29.93R
MOSINEE        NOT AVBL
MARSHFIELD     CLOUDY    39  35  86 CALM      29.94R
STEVENS POINT  CLOUDY    39  38  97 CALM      29.94S
WAUPACA        CLOUDY    45  39  82 NE3       29.94F
WAUTOMA        CLOUDY    43  40  89 S5        29.95R
WISC RAPIDS    CLOUDY    44  40  85 CALM      29.95S
CAMP DOUGLAS   CLOUDY    43  41  93 W5        29.95R
$$

WIZ011>013-019>022-031-037>040-048>050-271800-
NORTHEAST WISCONSIN

CITY           SKY/WX    TMP DP  RH WIND       PRES   REMARKS
ANTIGO         CLOUDY    37  35  94 CALM      29.94R
SHAWANO        CLOUDY    42  37  82 CALM      29.95S
OCONTO         CLOUDY    39  36  87 CALM      29.95S
STURGEON BAY   NOT AVBL
GREEN BAY      CLOUDY    41  37  86 NE6       29.95F
MANITOWOC      CLOUDY    39  37  92 E8        29.96S FOG     WCI  33
APPLETON       CLOUDY    39  39 100 VRB5      29.93S
CLINTONVILLE   CLOUDY    41  37  87 CALM      29.94S
OSHKOSH        CLOUDY    41  38  89 E6        29.94S
$$

WIZ032>034-041-042-053>061-271800-
SOUTHWEST WISCONSIN

CITY           SKY/WX    TMP DP  RH WIND       PRES   REMARKS
LA CROSSE      CLOUDY    45  42  89 NW6       29.95F FOG
SPARTA         CLOUDY    43  40  91 CALM      29.95F
VIROQUA        CLOUDY    42  42 100 CALM      29.94S
BOSCOBEL       CLOUDY    47  41  80 N5        29.95S
PRAIRIE DU CHI CLOUDY    43  42  95 NW5       29.96R FOG
PLATTEVILLE    CLOUDY    47  45  94 E5        29.94R
$$

WIZ056-057-062-063-064-067-068-271800-
SOUTH CENTRAL WISCONSIN

CITY           SKY/WX    TMP DP  RH WIND       PRES   REMARKS
REEDSBURG      CLOUDY    43  42  97 CALM      29.94S
BARABOO/DELLS  CLOUDY    43  40  89 NE3       29.94R
LONE ROCK      CLOUDY    47  41  80 E3        29.94S
MINERAL POINT  CLOUDY    46  46 100 NE6       29.92F
MADISON        CLOUDY    45  40  82 CALM      29.94R
MIDDLETON      CLOUDY    45  43  90 SE3       29.94S
WATERTOWN      CLOUDY    45  43  93 NE5       29.93F
MONROE         CLOUDY    45  41  87 E7        29.93S
JANESVILLE     CLOUDY    50  43  76 E6        29.93S
$$

WIZ051-052-058>065-066-070>072-271800-
SOUTHEAST WISCONSIN

CITY           SKY/WX    TMP DP  RH WIND       PRES   REMARKS
MILWAUKEE      CLOUDY    45  40  82 NE7       29.95F
WAUKESHA       CLOUDY    43  39  87 CALM      29.95F
MILWAUKEE/TIMM CLOUDY    45  37  76 N5        29.95F
RACINE         CLOUDY    44  39  82 NE6       29.97R
KENOSHA        CLOUDY    45  41  86 E8        29.96R
FOND DU LAC    CLOUDY    44  38  79 S3        29.94F
SHEBOYGAN      CLOUDY    42  37  82 CALM      29.95F
WEST BEND      CLOUDY    43  41  93 CALM      29.95S
JUNEAU         CLOUDY    43  40  87 E3        29.94F
$$

LSZ147-162-271800-
LAKE SUPERIOR

STATION/POSITION TIME  TEMP    WIND        PRES    WAVE
                       AIR SEA DIR/SP/G            HT/PER
                 (UTC) (F)     (DEG/KT/KT) (MB)    (FT/S)
DEVILS ISLAND    1600   33     240/ 10/ 12 1016.4R
PORT WING        1540   36     290/  4/  7 1016.3R
SAXON HARBOR     1540   34     360/  5/  6 1015.6R
$$

LMZ867-665-643>646-271800-
LAKE MICHIGAN

STATION/POSITION TIME  TEMP    WIND        PRES    WAVE
                       AIR SEA DIR/SP/G            HT/PER
                 (UTC) (F)     (DEG/KT/KT) (MB)    (FT/S)
CHAMBERS ISLAND  1630   35      40/  4/  4 1014.2S
NORTHPORT PIER   1640   35     310/  5/  9 1014.6R
KEWAUNEE LAKESHO 1642   37     170/  2/  3 1014.1S
SHEBOYGAN LAKESH 1600   39      70/  3/  4 1014.8R
PORT WASHINGTON  1530   40     100/  2/  3 1015.6S
MILWAUKEE LAKESH 1630   40      10/  1/  2   N/A
KENOSHA   LAKESH 1600   40      40/ 10/ 11 1014.6
$$

TC  - TEMPERATURE IN CELSIUS
VSB - VISIBILITY IN STATUTE MILES
WCI - WIND CHILL INDEX
HX  - HEAT INDEX





USA.gov is the U.S. government's official web portal to all federal, state and local government web resources and services.